EN

Hourly Weather Dziewki

Today, 30 October, Friday

Time Temperature Precipitation Wind Pressure Humidity
00:00 +5°C° 0 mm 3 mps 734 mmHg 83%
01:00 +5°C° 0 mm 3 mps 735 mmHg 83%
02:00 +5°C° 0 mm 3 mps 735 mmHg 84%
03:00 +4°C° 0 mm 3 mps 735 mmHg 84%
04:00 +4°C° 0 mm 3 mps 735 mmHg 85%
05:00 +4°C° 0 mm 3 mps 735 mmHg 85%
06:00 +4°C° 0 mm 3 mps 735 mmHg 85%
07:00 +4°C° 0 mm 3 mps 735 mmHg 85%
08:00 +5°C° 0 mm 3 mps 735 mmHg 81%
09:00 +7°C° 0 mm 3 mps 735 mmHg 76%
10:00 +7°C° 0 mm 4 mps 735 mmHg 72%
11:00 +7°C° 0 mm 4 mps 734 mmHg 74%
12:00 +7°C° 0 mm 4 mps 734 mmHg 75%
13:00 +8°C° 0 mm 4 mps 734 mmHg 76%
14:00 +7°C° 0.7 mm 4 mps 733 mmHg 81%
15:00 +7°C° 0.7 mm 4 mps 733 mmHg 86%
16:00 +6°C° 0.7 mm 4 mps 733 mmHg 91%
17:00 +7°C° 0.9 mm 4 mps 733 mmHg 92%
18:00 +7°C° 0.9 mm 4 mps 732 mmHg 94%
19:00 +7°C° 0.9 mm 4 mps 732 mmHg 95%
20:00 +8°C° 0.6 mm 4 mps 732 mmHg 95%
21:00 +9°C° 0.6 mm 5 mps 732 mmHg 95%
22:00 +9°C° 0.6 mm 5 mps 732 mmHg 95%
23:00 +9°C° 0.7 mm 5 mps 733 mmHg 95%

Tomorrow, 31 October, Saturday

Time Temperature Precipitation Wind Pressure Humidity
00:00 +10°C° 0.7 mm 5 mps 733 mmHg 95%
01:00 +11°C° 0.7 mm 4 mps 733 mmHg 95%
02:00 +10°C° 0.6 mm 4 mps 733 mmHg 95%
03:00 +10°C° 0.6 mm 3 mps 733 mmHg 95%
04:00 +9°C° 0.6 mm 2 mps 734 mmHg 95%
05:00 +9°C° 0.6 mm 2 mps 734 mmHg 94%
06:00 +9°C° 0.6 mm 2 mps 735 mmHg 93%
07:00 +8°C° 0.6 mm 2 mps 736 mmHg 93%
08:00 +9°C° 0.1 mm 2 mps 736 mmHg 87%
09:00 +9°C° 0.1 mm 2 mps 736 mmHg 81%
10:00 +10°C° 0.1 mm 2 mps 737 mmHg 75%
11:00 +11°C° 0 mm 1 mps 737 mmHg 70%
12:00 +12°C° 0 mm 1 mps 737 mmHg 66%
13:00 +13°C° 0 mm 1 mps 737 mmHg 61%
14:00 +12°C° 0 mm 1 mps 737 mmHg 64%
15:00 +11°C° 0 mm 1 mps 737 mmHg 66%
16:00 +11°C° 0 mm 1 mps 737 mmHg 69%
17:00 +10°C° 0 mm 1 mps 737 mmHg 72%
18:00 +9°C° 0 mm 1 mps 737 mmHg 75%
19:00 +9°C° 0 mm 1 mps 738 mmHg 78%
20:00 +8°C° 0 mm 1 mps 738 mmHg 80%
21:00 +8°C° 0 mm 1 mps 738 mmHg 81%
22:00 +8°C° 0 mm 1 mps 738 mmHg 83%
23:00 +7°C° 0 mm 1 mps 737 mmHg 84%

Day after tomorrow, 1 November, Sunday

Time Temperature Precipitation Wind Pressure Humidity
00:00 +7°C° 0 mm 1 mps 737 mmHg 85%
01:00 +6°C° 0 mm 2 mps 737 mmHg 86%
02:00 +5°C° 0 mm 2 mps 737 mmHg 86%
03:00 +5°C° 0 mm 2 mps 737 mmHg 87%
04:00 +5°C° 0 mm 2 mps 737 mmHg 87%
05:00 +5°C° 0 mm 2 mps 737 mmHg 87%
06:00 +5°C° 0 mm 2 mps 736 mmHg 87%
07:00 +4°C° 0 mm 2 mps 736 mmHg 86%
08:00 +6°C° 0 mm 2 mps 736 mmHg 80%
09:00 +7°C° 0 mm 3 mps 736 mmHg 73%
10:00 +9°C° 0 mm 3 mps 736 mmHg 67%
11:00 +10°C° 0 mm 3 mps 736 mmHg 66%
12:00 +11°C° 0 mm 3 mps 735 mmHg 65%
13:00 +12°C° 0 mm 3 mps 735 mmHg 64%
14:00 +11°C° 0 mm 3 mps 734 mmHg 68%
15:00 +11°C° 0 mm 3 mps 734 mmHg 73%
16:00 +10°C° 0 mm 3 mps 734 mmHg 77%
17:00 +10°C° 0 mm 3 mps 734 mmHg 79%
18:00 +10°C° 0 mm 3 mps 734 mmHg 80%
19:00 +8°C° 0 mm 4 mps 734 mmHg 81%
20:00 +8°C° 0.1 mm 4 mps 733 mmHg 83%
21:00 +8°C° 0.1 mm 4 mps 733 mmHg 84%
22:00 +8°C° 0.1 mm 4 mps 733 mmHg 85%
23:00 +8°C° 0.3 mm 4 mps 733 mmHg 87%

2 November, Monday

Time Temperature Precipitation Wind Pressure Humidity
00:00 +8°C° 0.3 mm 4 mps 733 mmHg 89%
01:00 +8°C° 0.3 mm 4 mps 733 mmHg 91%
02:00 +8°C° 0.1 mm 4 mps 732 mmHg 92%
03:00 +10°C° 0.1 mm 4 mps 732 mmHg 92%
04:00 +10°C° 0.1 mm 4 mps 732 mmHg 92%
05:00 +10°C° 0 mm 4 mps 732 mmHg 93%
06:00 +10°C° 0 mm 4 mps 732 mmHg 93%
07:00 +10°C° 0 mm 3 mps 732 mmHg 94%
08:00 +11°C° 0 mm 3 mps 732 mmHg 91%
09:00 +11°C° 0 mm 4 mps 733 mmHg 89%
10:00 +12°C° 0 mm 4 mps 733 mmHg 87%
11:00 +12°C° 0 mm 4 mps 733 mmHg 88%
12:00 +12°C° 0 mm 4 mps 732 mmHg 88%
13:00 +12°C° 0 mm 4 mps 732 mmHg 89%
14:00 +12°C° 0 mm 4 mps 732 mmHg 89%
15:00 +12°C° 0 mm 4 mps 732 mmHg 89%
16:00 +12°C° 0 mm 4 mps 732 mmHg 89%
17:00 +12°C° 0 mm 4 mps 732 mmHg 90%
18:00 +12°C° 0 mm 4 mps 732 mmHg 91%
19:00 +12°C° 0 mm 5 mps 733 mmHg 92%
20:00 +12°C° 0 mm 4 mps 733 mmHg 92%
21:00 +12°C° 0 mm 4 mps 733 mmHg 91%
22:00 +12°C° 0 mm 4 mps 733 mmHg 91%
23:00 +12°C° 0 mm 4 mps 733 mmHg 91%

3 November, Tuesday

Time Temperature Precipitation Wind Pressure Humidity
00:00 +12°C° 0 mm 5 mps 733 mmHg 91%
01:00 +12°C° 0 mm 5 mps 733 mmHg 92%
02:00 +12°C° 0 mm 4 mps 733 mmHg 92%
03:00 +12°C° 0 mm 4 mps 733 mmHg 93%
04:00 +12°C° 0 mm 4 mps 733 mmHg 94%
05:00 +12°C° 0 mm 4 mps 733 mmHg 93%
06:00 +12°C° 0 mm 4 mps 733 mmHg 92%
07:00 +12°C° 0 mm 4 mps 734 mmHg 91%
08:00 +13°C° 0 mm 3 mps 734 mmHg 88%
09:00 +14°C° 0 mm 3 mps 735 mmHg 84%
10:00 +14°C° 0 mm 3 mps 735 mmHg 81%
11:00 +14°C° 0 mm 3 mps 735 mmHg 82%
12:00 +14°C° 0 mm 3 mps 736 mmHg 84%
13:00 +14°C° 0 mm 3 mps 736 mmHg 85%
14:00 +13°C° 0 mm 3 mps 736 mmHg 83%
15:00 +13°C° 0 mm 3 mps 736 mmHg 81%
16:00 +13°C° 0 mm 2 mps 736 mmHg 79%
17:00 +13°C° 0.1 mm 2 mps 737 mmHg 77%
18:00 +12°C° 0.1 mm 2 mps 737 mmHg 74%
19:00 +12°C° 0.1 mm 2 mps 737 mmHg 72%
20:00 +12°C° 0.1 mm 2 mps 738 mmHg 72%
21:00 +12°C° 0.1 mm 1 mps 738 mmHg 72%
22:00 +11°C° 0.1 mm 1 mps 738 mmHg 72%
23:00 +11°C° 0 mm 1 mps 738 mmHg 72%

4 November, Wednesday

Time Temperature Precipitation Wind Pressure Humidity
00:00 +10°C° 0 mm 2 mps 738 mmHg 73%
01:00 +10°C° 0 mm 2 mps 738 mmHg 73%
02:00 +10°C° 0.4 mm 2 mps 738 mmHg 76%
03:00 +9°C° 0.4 mm 2 mps 738 mmHg 78%
04:00 +9°C° 0.4 mm 2 mps 738 mmHg 81%
05:00 +8°C° 1.6 mm 3 mps 738 mmHg 84%
06:00 +8°C° 1.6 mm 3 mps 738 mmHg 87%
07:00 +7°C° 1.6 mm 4 mps 738 mmHg 90%
08:00 +7°C° 0.8 mm 4 mps 739 mmHg 91%
09:00 +7°C° 0.8 mm 4 mps 739 mmHg 91%
10:00 +7°C° 0.8 mm 4 mps 739 mmHg 92%
11:00 +7°C° 1.1 mm 4 mps 739 mmHg 92%
12:00 +7°C° 1.1 mm 4 mps 739 mmHg 92%
13:00 +7°C° 1.1 mm 4 mps 740 mmHg 92%
14:00 +7°C° 0.6 mm 4 mps 740 mmHg 92%
15:00 +6°C° 0.6 mm 4 mps 740 mmHg 92%
16:00 +6°C° 0.6 mm 4 mps 740 mmHg 92%
17:00 +6°C° 0.2 mm 4 mps 741 mmHg 91%
18:00 +7°C° 0.2 mm 3 mps 741 mmHg 91%
19:00 +7°C° 0.2 mm 3 mps 742 mmHg 91%
20:00 +7°C° 0 mm 3 mps 742 mmHg 91%
21:00 +7°C° 0 mm 3 mps 743 mmHg 90%
22:00 +7°C° 0 mm 2 mps 743 mmHg 90%
23:00 +7°C° 0 mm 2 mps 743 mmHg 90%
Show more